Regional Weather Roundup
Issued by NWS

Current Version | Previous Version | Text Only | Print | Product List | Glossary On
Versions: 1 2 3 4 5 6 7 8 9 10 11 12 13 14 15 16 17 18 19 20 21 22 23 24 25 26 27 28 29 30 31 32 33 34 35 36 37 38 39 40 41 42 43 44 45 46 47 48 49 50
000
ASUS44 KFWD 300215
RWRTX
NORTH TEXAS HOURLY WEATHER ROUNDUP
NATIONAL WEATHER SERVICE FORT WORTH TX
800 PM CST THU JAN 29 2015

NOTE: "FAIR" INDICATES FEW OR NO CLOUDS BELOW 12,000 FEET WITH NO
SIGNIFICANT WEATHER AND/OR OBSTRUCTIONS TO VISIBILITY.

TXZ118-119-300300-
DALLAS/FORT WORTH METROPLEX

CITY           SKY/WX    TMP DP  RH WIND       PRES   REMARKS
DFW AIRPORT    CLOUDY    54  31  41 N20G25    30.41R
DALLAS LOVE    CLOUDY    55  32  41 N12G21    30.41R
FTW MEACHAM    CLOUDY    54  32  43 N15       30.42R
DAL-EXECUTIVE  CLOUDY    57  31  37 N17G28    30.40R
FTW-ALLIANCE   CLOUDY    51  31  46 N10       30.42R
FTW-SPINKS     CLOUDY    53  32  44 N13G18    30.43R
ARLINGTON      CLOUDY    57  29  34 N17       30.41R
GRAND PRAIRIE  CLOUDY    56  34  44 N15G21    30.42R
ADDISON        CLEAR     54  30  40 N10G18    30.42
MESQUITE       CLEAR     52  36  54 N10       30.42R
LANCASTER      CLOUDY    55  31  41 N12       30.42R
$$

TXZ091>094-102>105-117-120-121-131>134-300300-
NORTH CENTRAL TEXAS

CITY           SKY/WX    TMP DP  RH WIND       PRES   REMARKS
SHRMAN/DENISON CLOUDY    49  35  58 N16G22    30.45R
GAINESVILLE    CLOUDY    49  31  48 N13       30.47R
BOWIE          CLOUDY    48  32  53 N9        30.45R
BRIDGEPORT     CLOUDY    50  33  52 N7        30.47R
DECATUR        CLOUDY    50  30  46 N12       30.44R
DENTON         CLOUDY    51  32  48 N10       30.43R
MCKINNEY       CLOUDY    51  32  48 N15       30.42R
GREENVILLE     MOCLDY    52  32  46 N9        30.41R
ROCKWALL       MOCLDY    52  34  50 N10       30.40R
TERRELL        MOCLDY    55  32  41 N13       30.41R
WAXAHACHIE     CLOUDY    56  35  45 N14G23    30.41R
CLEBURNE       CLOUDY    54  32  43 N18       30.42R
GRANBURY       MOCLDY    54  34  46 NW8       30.44R
$$

TXZ083>090-098>101-113>116-127>130-139>142-154-155-300300-
WESTERN NORTH TEXAS

CITY           SKY/WX    TMP DP  RH WIND       PRES   REMARKS
WICHITA FALLS  CLOUDY    45  31  58 NE10      30.47R WCI  40
WF-KICKAPOO    CLOUDY    43  22  43 N10       30.49R WCI  37
VERNON         CLOUDY    47  25  41 N7        30.50R
ABILENE        CLOUDY    50  30  46 N9        30.47R
ABILENE-DYESS  CLOUDY    50  31  48 NE12      30.46R
BRECKENRIDGE   CLOUDY    52  29  41 N5        30.46R
GRAHAM         CLOUDY    49  33  54 N6        30.45R
MINERAL WELLS  CLOUDY    51  31  46 N9        30.43R
STEPHENVILLE   MOCLDY    51  32  47 N12G17    30.44R
COMANCHE       MOCLDY    52  35  51 N13       30.43R
BROWNWOOD      CLOUDY    54  32  43 N10G16    30.43R
COLEMAN        CLOUDY    53  36  53 N16       30.43R
BRADY          MOCLDY    55  36  47 N10       30.40R
$$

TXZ143>147-156>162-174-175-300300-
CENTRAL TEXAS

CITY           SKY/WX    TMP DP  RH WIND       PRES   REMARKS
WACO           PTCLDY    57  38  48 N12       30.38R
WACO-TSTC      CLEAR     59  37  44 N17       30.38R
WACO-MCGREGOR  MOCLDY    57  34  41 N12       30.39R
HILLSBORO      MOCLDY    54  36  51 N7        30.40R
CORSICANA      MOCLDY    58  35  42 N12       30.39R
MEXIA          MOCLDY    58  38  47 N13G18    30.36R
HEARNE         CLOUDY    64  42  43 N13       30.32R
CAMERON        CLOUDY    64  43  46 N10G22    30.33R
TEMPLE         MOCLDY    59  36  41 N15       30.35R
KILLEEN        CLOUDY    61  36  39 N21G28    30.36R
KILLEEN-SKYLRK CLOUDY    61  36  39 N15G22    30.33R
FORT HOOD      CLOUDY    61  37  40 N13       30.36R
GATESVILLE     MOCLDY    57  36  44 N8        30.41R
HAMILTON       MOCLDY    55  32  42 N10G16    30.41R
LAMPASAS       CLOUDY    60  39  44 N14G21    30.37R
$$

TXZ095>097-106>112-122>126-135>138-148>153-164>167-300300-
EAST TEXAS

CITY           SKY/WX    TMP DP  RH WIND       PRES   REMARKS
PARIS          CLOUDY    48  30  49 N14G21    30.43R
SULPHUR SPRNGS CLOUDY    51  34  52 N12       30.44R
MOUNT PLEASANT CLOUDY    51  32  48 N10G20    30.42R
GILMER         PTCLDY    53  36  51 N15G22    30.37R
MINEOLA        MOCLDY    54  32  43 N8G18     30.40R
TYLER          MOCLDY    56  35  45 N18G29    30.36R
LONGVIEW       PTCLDY    59  38  45 N18G25    30.33R
MARSHALL       PTCLDY    60  41  49 N14G20    30.36R
ATHENS         CLOUDY    55  36  47 N15       30.37R
PALESTINE      CLOUDY    59  40  50 N10       30.35R
JACKSONVILLE   MOCLDY    60  38  43 MISG      30.35R
HENDERSON      PTCLDY    59  38  45 N9G16     30.34R
NACOGDOCHES    MOCLDY    63  37  39 N10       30.31R
LUFKIN         CLOUDY    67  44  43 N7        30.28R
$$

SUPPLEMENTAL OBSERVATIONS (CENTRAL)

CITY           SKY/WX    TMP DP  RH WIND       PRES   REMARKS
LAKE TEXOMA      N/A     50  32  50 N14         N/A
CADDO GRASSLND   N/A     48  32  53 N7G15       N/A
PAT MAYSE LAKE   N/A     48  32  53 NW12        N/A
ATHENS           N/A     55  34  44 N9G17       N/A
PALESTINE        N/A     61  37  41 N8G17       N/A
LAKE LIMESTONE   N/A     61  36  39 VRB14       N/A
MCGREGOR         N/A     57  36  44 N6G14       N/A
TEMPLE           N/A     63  37  39 N5G21       N/A
$$

SUPPLEMENTAL OBSERVATIONS (WEST)

CITY           SKY/WX    TMP DP  RH WIND       PRES   REMARKS
MILLERS CREEK    N/A     48  32  53 N8G16       N/A
POSSUM KINGDOM   N/A     50  30  46 N8          N/A
LBJ GRASSLAND    N/A     52  32  46 N6          N/A
GRANBURY         N/A     52  32  46 N9          N/A
COMANCHE         N/A     52  32  46 VRB14       N/A
HAMBY            N/A     48  30  49 N8          N/A
IVIE RESERVOIR   N/A     55  32  41 N12         N/A
COLORADO BEND    N/A     57  32  38 N9G18       N/A
$$

SUPPLEMENTAL OBSERVATIONS (EAST)

CITY           SKY/WX    TMP DP  RH WIND       PRES   REMARKS
CLARKSVILLE      N/A     48  32  53 N9          N/A
TEXARKANA        N/A     52  36  54 N7G17       N/A
LINDEN           N/A     54  36  50 N6          N/A
CADDO LAKE       N/A     57  37  47 N6G14       N/A
GILMER           N/A     54  34  47 N14         N/A
HENDERSON        N/A     59  36  41 VRB12       N/A
N SABINE NF      N/A     61  43  51 MISG        N/A
S SABINE NF      N/A     59  54  82 W2          N/A
$$

SUPPLEMENTAL OBSERVATIONS ARE A COLLECTION OF AUTOMATED INSTRUMENTS
THAT ARE MAINTAINED BY A VARIETY OF FEDERAL AND STATE AGENCIES.
CERTAIN ELEMENTS...SUCH AS HUMIDITY VALUES AND SUSTAINED WIND
SPEEDS...MAY BE APPROXIMATED.



USA.gov is the U.S. government's official web portal to all federal, state and local government web resources and services.